Notices

What's New in latest Release from April 7th, 2021:

- Updated Glossary, including Speed of Maximum Gust, and Total Hourly Precipitation

- Updated national and regional climate services offices contacts and prices information

- Addition of station inventory lists for 1981-2010, 1971-2000, and 1961-1990 Normals.

If you haven't already, please take our survey and provide feedback about our website: https://eccc.sondage-survey.ca/f/LanguageSelection.aspx?s=442ca660-fcf1-47c0-95a9-59707d6fd709

Hourly Data Report for November 18, 2019

VICTORIA UNIVERSITY CS
BRITISH COLUMBIA
Current Station Operator: ECCC - MSC

48°27'25.200" N
123°18'16.600" W
60.10 m
1018598
71783
WYJ

Download Data

Hourly Data (November 2019)
Hourly Data Report for November 18, 2019
TIME
LST
Temp Definition
°C
Dew Point Definition
°C
Rel Hum Definition
%
Precip. Amount Definition
mm

Wind Dir Definition
10's deg

Wind Spd Definition
km/h
Visibility Definition
km
Stn Press Definition
kPa
Hmdx Definition


Wind Chill Definition


Weather Definition


00:00 6.2 5.8 97 0.0 26 4   101.45     LegendNANA
01:00 5.5 5.2 97 0.0 28 3   101.42     LegendNANA
02:00 5.6 5.4 99 0.0 28 3   101.37     LegendNANA
03:00 5.6 5.4 99 0.0   0   101.28     LegendNANA
04:00 5.8 5.7 99 0.0 29 1   101.17     LegendNANA
05:00 7.4 7.3 99 0.0 12 1   101.12     LegendNANA
06:00 8.1 8.0 100 0.0 1 4   101.04     LegendNANA
07:00 7.9 7.9 100 0.0 35 4   100.97     LegendNANA
08:00 7.7 7.7 100 0.0 1 8   100.86     LegendNANA
09:00 8.1 8.0 99 0.0 36 3   100.79     LegendNANA
10:00 8.3 8.2 99 0.0 33 5   100.67     LegendNANA
11:00 8.5 8.2 98 0.0 35 10   100.55     LegendNANA
12:00 8.6 8.3 98 0.0 36 8   100.42     LegendNANA
13:00 8.9 8.6 98 0.0 1 7   100.27     LegendNANA
14:00 8.9 8.5 97 0.0 35 7   100.13     LegendNANA
15:00 8.7 8.3 98 0.7 36 10   100.01     LegendNANA
16:00 8.5 8.2 98 0.4 35 7   99.94     LegendNANA
17:00 8.4 8.2 99 0.2 1 9   99.78     LegendNANA
18:00 8.4 8.3 99 1.0 36 11   99.71     LegendNANA
19:00 8.5 8.4 99 0.8 1 14   99.61     LegendNANA
20:00 8.6 8.5 99 0.0 36 11   99.63     LegendNANA
21:00 8.7 8.5 99 0.0 36 11   99.64     LegendNANA
22:00 8.7 8.5 99 0.0 2 11   99.71     LegendNANA
23:00 8.5 8.4 99 0.0 36 13   99.69     LegendNANA

Notes on Data Quality.

Legend

  • E = Estimated
  • M = Missing
  • NA = Not Available*
  • [empty] = Indicates an unobserved value
Date modified: